SSR90LB LIML-LIME

Flight info

Callsign SSR90LB
Flight time 0h 13m
Altitude 8000
Route OSKOR
Aircraft C525/L-SDFGRYW/SB1

Departure

Time 2026-05-01 13:20
Airport Milano Linate Airport (LIML)

Arrival

Time 2026-05-01 13:34
Airport Il Caravaggio International Airport (LIME)
Time Latitude Longitude Altitude Speed Heading
2026-05-01 12:55 45.45329 9.26256 354 ft 0 kts 244°
2026-05-01 13:07 45.45336 9.26338 353 ft 0 kts 327°
2026-05-01 13:09 45.45338 9.26336 353 ft 1 kts 333°
2026-05-01 13:09 45.45363 9.26321 353 ft 5 kts 335°
2026-05-01 13:10 45.45412 9.26288 353 ft 8 kts 334°
2026-05-01 13:10 45.45480 9.26242 354 ft 11 kts 334°
2026-05-01 13:10 45.45560 9.26183 354 ft 13 kts 325°
2026-05-01 13:10 45.45650 9.26155 355 ft 14 kts 355°
2026-05-01 13:11 45.45754 9.26143 355 ft 16 kts 355°
2026-05-01 13:11 45.45860 9.26161 356 ft 16 kts 22°
2026-05-01 13:11 45.45940 9.26239 357 ft 13 kts 40°
2026-05-01 13:11 45.46018 9.26346 357 ft 17 kts 52°
2026-05-01 13:12 45.46064 9.26514 357 ft 19 kts 84°
2026-05-01 13:12 45.46066 9.26678 357 ft 14 kts 92°
2026-05-01 13:12 45.46066 9.26834 357 ft 17 kts 91°
2026-05-01 13:12 45.46054 9.27004 357 ft 18 kts 100°
2026-05-01 13:13 45.46025 9.27187 358 ft 20 kts 100°
2026-05-01 13:13 45.46016 9.27398 359 ft 22 kts 90°
2026-05-01 13:13 45.46004 9.27620 361 ft 17 kts 108°
2026-05-01 13:13 45.45934 9.27767 362 ft 14 kts 130°
2026-05-01 13:14 45.45906 9.27882 362 ft 11 kts 91°
2026-05-01 13:14 45.45890 9.27981 362 ft 10 kts 163°
2026-05-01 13:14 45.45800 9.27981 361 ft 15 kts 180°
2026-05-01 13:14 45.45673 9.27979 359 ft 20 kts 179°
2026-05-01 13:15 45.45524 9.27978 358 ft 19 kts 180°
2026-05-01 13:15 45.45389 9.27977 357 ft 13 kts 188°
2026-05-01 13:15 45.45288 9.27906 356 ft 18 kts 207°
2026-05-01 13:15 45.45153 9.27872 354 ft 14 kts 177°
2026-05-01 13:16 45.45041 9.27884 354 ft 18 kts 174°
2026-05-01 13:16 45.44933 9.27903 353 ft 12 kts 160°
2026-05-01 13:16 45.44838 9.27941 353 ft 16 kts 178°
2026-05-01 13:17 45.44376 9.27989 349 ft 27 kts 176°
2026-05-01 13:17 45.44174 9.28011 347 ft 30 kts 176°
2026-05-01 13:18 45.43729 9.28059 343 ft 25 kts 175°
2026-05-01 13:18 45.43563 9.28078 341 ft 19 kts 175°
2026-05-01 13:18 45.43451 9.28036 340 ft 13 kts 251°
2026-05-01 13:18 45.43442 9.27895 340 ft 15 kts 269°
2026-05-01 13:19 45.43482 9.27817 341 ft 7 kts 345°
2026-05-01 13:19 45.43507 9.27814 341 ft 3 kts 356°
2026-05-01 13:19 45.44453 9.27712 429 ft 124 kts 357°
2026-05-01 13:20 45.45346 9.27612 899 ft 139 kts 357°
2026-05-01 13:20 45.46384 9.27567 1313 ft 166 kts
2026-05-01 13:20 45.47532 9.27699 2141 ft 168 kts
2026-05-01 13:21 45.49823 9.28060 3775 ft 170 kts
2026-05-01 13:21 45.50975 9.28329 4580 ft 169 kts 24°
2026-05-01 13:21 45.51728 9.29478 5320 ft 168 kts 70°
2026-05-01 13:21 45.51918 9.31098 6047 ft 171 kts 87°
2026-05-01 13:22 45.51599 9.32728 6799 ft 174 kts 114°
2026-05-01 13:22 45.51001 9.34212 7509 ft 177 kts 120°
2026-05-01 13:22 45.50309 9.35740 7975 ft 195 kts 121°
2026-05-01 13:22 45.49531 9.37458 8256 ft 221 kts 117°
2026-05-01 13:23 45.49053 9.39696 8365 ft 250 kts 99°
2026-05-01 13:23 45.48912 9.42318 8370 ft 278 kts 89°
2026-05-01 13:23 45.48922 9.45079 8342 ft 282 kts 87°
2026-05-01 13:23 45.48971 9.47884 8338 ft 283 kts 87°
2026-05-01 13:24 45.49029 9.50717 8330 ft 281 kts 86°
2026-05-01 13:24 45.49087 9.53494 8330 ft 279 kts 86°
2026-05-01 13:24 45.49145 9.56266 8329 ft 278 kts 86°
2026-05-01 13:25 45.49256 9.61749 8328 ft 276 kts 86°
2026-05-01 13:25 45.49310 9.64455 8329 ft 276 kts 86°
2026-05-01 13:25 45.49364 9.67199 8330 ft 275 kts 87°
2026-05-01 13:25 45.49417 9.69964 8326 ft 275 kts 87°
2026-05-01 13:26 45.49469 9.72711 8327 ft 274 kts 87°
2026-05-01 13:26 45.49520 9.75424 8322 ft 274 kts 87°
2026-05-01 13:26 45.49571 9.78151 8324 ft 274 kts 87°
2026-05-01 13:26 45.49619 9.80845 8329 ft 274 kts 87°
2026-05-01 13:27 45.49668 9.83543 8318 ft 271 kts 87°
2026-05-01 13:27 45.49714 9.86205 8307 ft 263 kts 87°
2026-05-01 13:27 45.49839 9.91402 7831 ft 265 kts 82°
2026-05-01 13:28 45.52114 9.95080 7322 ft 257 kts 18°
2026-05-01 13:28 45.53856 9.95504 7005 ft 256 kts
2026-05-01 13:29 45.57415 9.95709 5914 ft 256 kts
2026-05-01 13:29 45.60860 9.95171 4792 ft 249 kts 330°
2026-05-01 13:30 45.63811 9.86680 2758 ft 233 kts 284°
2026-05-01 13:31 45.64578 9.82522 2260 ft 190 kts 284°
2026-05-01 13:31 45.65368 9.78299 1605 ft 117 kts 284°
2026-05-01 13:32 45.65770 9.76141 1335 ft 111 kts 283°
2026-05-01 13:33 45.66360 9.72960 907 ft 105 kts 284°
2026-05-01 13:33 45.66705 9.71123 778 ft 76 kts 284°
2026-05-01 13:34 45.66898 9.70099 785 ft 26 kts 291°
2026-05-01 13:34 45.67059 9.69906 789 ft 8 kts 333°
2026-05-01 13:35 45.67122 9.69842 791 ft 4 kts 304°
2026-05-01 13:35 45.67141 9.69769 791 ft 11 kts 285°
2026-05-01 13:35 45.67191 9.69510 791 ft 12 kts 303°
2026-05-01 13:36 45.67266 9.69487 793 ft 12 kts 28°
2026-05-01 13:36 45.67339 9.69558 796 ft 11 kts 58°
2026-05-01 13:36 45.67300 9.69837 796 ft 11 kts 105°
2026-05-01 13:37 45.67279 9.69953 795 ft 8 kts 105°
2026-05-01 13:37 45.67247 9.69988 795 ft 9 kts 195°
2026-05-01 13:37 45.67193 9.69967 793 ft 2 kts 196°
2026-05-01 13:37 45.67189 9.69966 793 ft 0 kts 195°